owner,sensor,date,latitude,longitude,vertical_datum,sea_water_temperature,qcFlag
Shell,ioos:station:wmo:42851:1,2022-04-14T22:56:00Z,28.6101,-87.9775,10.0,25.6,11111222
Shell,ioos:station:wmo:42851:1,2022-04-14T23:06:00Z,28.6101,-87.9775,10.0,25.6,11111222
Shell,ioos:station:wmo:42851:1,2022-04-14T23:16:00Z,28.6101,-87.9775,10.0,25.6,11111222
Shell,ioos:station:wmo:42851:1,2022-04-14T23:26:00Z,28.6101,-87.9775,10.0,25.6,11111222
Shell,ioos:station:wmo:42851:1,2022-04-14T23:36:00Z,28.6101,-87.9775,10.0,25.7,11111222
Shell,ioos:station:wmo:42851:1,2022-04-14T23:46:00Z,28.6101,-87.9775,10.0,25.7,11111222
Shell,ioos:station:wmo:42851:1,2022-04-14T23:56:00Z,28.6101,-87.9775,10.0,25.7,11111222
Shell,ioos:station:wmo:42851:1,2022-04-15T00:06:00Z,28.6101,-87.9775,10.0,25.7,11111222
Shell,ioos:station:wmo:42851:1,2022-04-15T00:16:00Z,28.6101,-87.9775,10.0,25.7,11111222
Shell,ioos:station:wmo:42851:1,2022-04-15T00:26:00Z,28.6101,-87.9775,10.0,25.7,11111222
Shell,ioos:station:wmo:42851:1,2022-04-15T00:36:00Z,28.6101,-87.9775,10.0,25.7,11111222
Shell,ioos:station:wmo:42851:1,2022-04-15T00:46:00Z,28.6101,-87.9775,10.0,25.7,11111222
Shell,ioos:station:wmo:42851:1,2022-04-15T00:56:00Z,28.6101,-87.9775,10.0,25.7,11111222
Shell,ioos:station:wmo:42851:1,2022-04-15T01:06:00Z,28.6101,-87.9775,10.0,25.7,11111222
Shell,ioos:station:wmo:42851:1,2022-04-15T01:16:00Z,28.6101,-87.9775,10.0,25.7,11111222
Shell,ioos:station:wmo:42851:1,2022-04-15T01:26:00Z,28.6101,-87.9775,10.0,25.7,11111222
Shell,ioos:station:wmo:42851:1,2022-04-15T01:36:00Z,28.6101,-87.9775,10.0,25.7,11111222
Shell,ioos:station:wmo:42851:1,2022-04-15T01:46:00Z,28.6101,-87.9775,10.0,25.7,11111222
Shell,ioos:station:wmo:42851:1,2022-04-15T01:56:00Z,28.6102,-87.9772,10.0,25.7,11111222
Shell,ioos:station:wmo:42851:1,2022-04-15T02:06:00Z,28.6102,-87.9777,10.0,25.7,11111222
Shell,ioos:station:wmo:42851:1,2022-04-15T02:16:00Z,28.6102,-87.9779,10.0,25.7,11111222
Shell,ioos:station:wmo:42851:1,2022-04-15T02:26:00Z,28.6102,-87.9779,10.0,25.7,11111222
Shell,ioos:station:wmo:42851:1,2022-04-15T02:36:00Z,28.6102,-87.9779,10.0,25.7,11111222
Shell,ioos:station:wmo:42851:1,2022-04-15T02:46:00Z,28.6102,-87.9779,10.0,25.7,11111222
Shell,ioos:station:wmo:42851:1,2022-04-15T02:56:00Z,28.6102,-87.9779,10.0,25.7,11111222
Shell,ioos:station:wmo:42851:1,2022-04-15T03:06:00Z,28.6102,-87.9779,10.0,25.7,11111222
Shell,ioos:station:wmo:42851:1,2022-04-15T03:16:00Z,28.6102,-87.9779,10.0,25.7,11111222
Shell,ioos:station:wmo:42851:1,2022-04-15T03:26:00Z,28.6102,-87.9779,10.0,25.7,11111222
Shell,ioos:station:wmo:42851:1,2022-04-15T03:36:00Z,28.6102,-87.9779,10.0,25.7,11111222
Shell,ioos:station:wmo:42851:1,2022-04-15T03:46:00Z,28.6102,-87.9779,10.0,25.7,11111222
Shell,ioos:station:wmo:42851:1,2022-04-15T03:56:00Z,28.6102,-87.9779,10.0,25.7,11111222
Shell,ioos:station:wmo:42851:1,2022-04-15T04:06:00Z,28.6102,-87.9779,10.0,25.7,11111222
Shell,ioos:station:wmo:42851:1,2022-04-15T04:16:00Z,28.6102,-87.9779,10.0,25.7,11111222
Shell,ioos:station:wmo:42851:1,2022-04-15T04:26:00Z,28.6102,-87.9779,10.0,25.6,11111222
Shell,ioos:station:wmo:42851:1,2022-04-15T04:36:00Z,28.6104,-87.9781,10.0,25.6,11111222
Shell,ioos:station:wmo:42851:1,2022-04-15T04:46:00Z,28.6109,-87.9788,10.0,25.6,11111222
Shell,ioos:station:wmo:42851:1,2022-04-15T04:56:00Z,28.6115,-87.9795,10.0,25.6,11111222
Shell,ioos:station:wmo:42851:1,2022-04-15T05:06:00Z,28.6118,-87.9798,10.0,25.6,11111222
Shell,ioos:station:wmo:42851:1,2022-04-15T05:16:00Z,28.6118,-87.9798,10.0,25.6,11111222
Shell,ioos:station:wmo:42851:1,2022-04-15T05:26:00Z,28.6118,-87.9798,10.0,25.6,11111222
Shell,ioos:station:wmo:42851:1,2022-04-15T05:36:00Z,28.6118,-87.9798,10.0,25.6,11111222
Shell,ioos:station:wmo:42851:1,2022-04-15T05:46:00Z,28.6118,-87.9798,10.0,25.6,11111222
Shell,ioos:station:wmo:42851:1,2022-04-15T05:56:00Z,28.6118,-87.9798,10.0,25.6,11111222
Shell,ioos:station:wmo:42851:1,2022-04-15T06:06:00Z,28.6110,-87.9801,10.0,25.6,11111222
Shell,ioos:station:wmo:42851:1,2022-04-15T06:16:00Z,28.6100,-87.9805,10.0,25.6,11111222
Shell,ioos:station:wmo:42851:1,2022-04-15T06:26:00Z,28.6092,-87.9808,10.0,25.5,11111222
Shell,ioos:station:wmo:42851:1,2022-04-15T06:36:00Z,28.6092,-87.9808,10.0,25.5,11111222
Shell,ioos:station:wmo:42851:1,2022-04-15T06:46:00Z,28.6092,-87.9808,10.0,25.5,11111222
Shell,ioos:station:wmo:42851:1,2022-04-15T06:56:00Z,28.6092,-87.9808,10.0,25.5,11111222
Shell,ioos:station:wmo:42851:1,2022-04-15T07:06:00Z,28.6092,-87.9808,10.0,25.5,11111222
Shell,ioos:station:wmo:42851:1,2022-04-15T07:16:00Z,28.6092,-87.9808,10.0,25.5,11111222
Shell,ioos:station:wmo:42851:1,2022-04-15T07:26:00Z,28.6092,-87.9808,10.0,25.5,11111222
Shell,ioos:station:wmo:42851:1,2022-04-15T07:36:00Z,28.6092,-87.9808,10.0,25.5,11111222
Shell,ioos:station:wmo:42851:1,2022-04-15T07:46:00Z,28.6092,-87.9806,10.0,25.5,11111222
Shell,ioos:station:wmo:42851:1,2022-04-15T07:56:00Z,28.6091,-87.9797,10.0,25.5,11111222
Shell,ioos:station:wmo:42851:1,2022-04-15T08:06:00Z,28.6090,-87.9792,10.0,25.5,11111222
Shell,ioos:station:wmo:42851:1,2022-04-15T08:16:00Z,28.6090,-87.9792,10.0,25.5,11111222
Shell,ioos:station:wmo:42851:1,2022-04-15T08:26:00Z,28.6090,-87.9792,10.0,25.5,11111222
Shell,ioos:station:wmo:42851:1,2022-04-15T08:36:00Z,28.6090,-87.9792,10.0,25.5,11111222
Shell,ioos:station:wmo:42851:1,2022-04-15T08:46:00Z,28.6090,-87.9792,10.0,25.5,11111222
Shell,ioos:station:wmo:42851:1,2022-04-15T08:56:00Z,28.6090,-87.9792,10.0,25.5,11111222
Shell,ioos:station:wmo:42851:1,2022-04-15T09:06:00Z,28.6090,-87.9792,10.0,25.5,11111222
Shell,ioos:station:wmo:42851:1,2022-04-15T09:16:00Z,28.6090,-87.9792,10.0,25.5,11111222
Shell,ioos:station:wmo:42851:1,2022-04-15T09:26:00Z,28.6090,-87.9792,10.0,25.5,11111222
Shell,ioos:station:wmo:42851:1,2022-04-15T09:36:00Z,28.6090,-87.9792,10.0,25.5,11111222
Shell,ioos:station:wmo:42851:1,2022-04-15T09:46:00Z,28.6090,-87.9792,10.0,25.4,11111222
Shell,ioos:station:wmo:42851:1,2022-04-15T09:56:00Z,28.6090,-87.9792,10.0,25.4,11111222
Shell,ioos:station:wmo:42851:1,2022-04-15T10:06:00Z,28.6090,-87.9792,10.0,25.4,11111222
Shell,ioos:station:wmo:42851:1,2022-04-15T10:16:00Z,28.6090,-87.9792,10.0,25.4,11111222
Shell,ioos:station:wmo:42851:1,2022-04-15T10:26:00Z,28.6090,-87.9792,10.0,25.4,11111222
Shell,ioos:station:wmo:42851:1,2022-04-15T10:36:00Z,28.6090,-87.9792,10.0,25.4,11111222
Shell,ioos:station:wmo:42851:1,2022-04-15T10:46:00Z,28.6090,-87.9792,10.0,25.4,11111222
Shell,ioos:station:wmo:42851:1,2022-04-15T10:56:00Z,28.6090,-87.9792,10.0,25.4,11111222
Shell,ioos:station:wmo:42851:1,2022-04-15T11:06:00Z,28.6090,-87.9792,10.0,25.4,11111222
Shell,ioos:station:wmo:42851:1,2022-04-15T11:16:00Z,28.6090,-87.9792,10.0,25.4,11111222
Shell,ioos:station:wmo:42851:1,2022-04-15T11:26:00Z,28.6090,-87.9792,10.0,25.4,11111222
Shell,ioos:station:wmo:42851:1,2022-04-15T11:36:00Z,28.6090,-87.9792,10.0,25.4,11111222
Shell,ioos:station:wmo:42851:1,2022-04-15T11:46:00Z,28.6090,-87.9792,10.0,25.4,11111222
Shell,ioos:station:wmo:42851:1,2022-04-15T11:56:00Z,28.6090,-87.9792,10.0,25.4,11111222
Shell,ioos:station:wmo:42851:1,2022-04-15T12:06:00Z,28.6090,-87.9793,10.0,25.3,11111222
Shell,ioos:station:wmo:42851:1,2022-04-15T12:16:00Z,28.6089,-87.9789,10.0,25.3,11111222
Shell,ioos:station:wmo:42851:1,2022-04-15T12:26:00Z,28.6089,-87.9789,10.0,25.2,11111222
Shell,ioos:station:wmo:42851:1,2022-04-15T12:36:00Z,28.6089,-87.9789,10.0,25.1,11111222
Shell,ioos:station:wmo:42851:1,2022-04-15T12:46:00Z,28.6089,-87.9789,10.0,25.0,11111222
Shell,ioos:station:wmo:42851:1,2022-04-15T12:56:00Z,28.6089,-87.9789,10.0,25.2,11111222
Shell,ioos:station:wmo:42851:1,2022-04-15T13:06:00Z,28.6089,-87.9789,10.0,25.2,11111222
Shell,ioos:station:wmo:42851:1,2022-04-15T13:16:00Z,28.6089,-87.9789,10.0,25.2,11111222
Shell,ioos:station:wmo:42851:1,2022-04-15T13:26:00Z,28.6089,-87.9789,10.0,25.2,11111222
Shell,ioos:station:wmo:42851:1,2022-04-15T13:36:00Z,28.6089,-87.9789,10.0,25.2,11111222
Shell,ioos:station:wmo:42851:1,2022-04-15T13:46:00Z,28.6089,-87.9789,10.0,25.2,11111222
Shell,ioos:station:wmo:42851:1,2022-04-15T13:56:00Z,28.6089,-87.9789,10.0,25.2,11111222
Shell,ioos:station:wmo:42851:1,2022-04-15T14:06:00Z,28.6089,-87.9789,10.0,25.2,11111222
Shell,ioos:station:wmo:42851:1,2022-04-15T14:16:00Z,28.6089,-87.9789,10.0,25.2,11111222
Shell,ioos:station:wmo:42851:1,2022-04-15T14:26:00Z,28.6090,-87.9793,10.0,25.2,11111222
Shell,ioos:station:wmo:42851:1,2022-04-15T14:36:00Z,28.6095,-87.9778,10.0,25.2,11111222
Shell,ioos:station:wmo:42851:1,2022-04-15T14:46:00Z,28.6099,-87.9765,10.0,25.2,11111222
Shell,ioos:station:wmo:42851:1,2022-04-15T14:56:00Z,28.6100,-87.9766,10.0,25.2,11111222
Shell,ioos:station:wmo:42851:1,2022-04-15T15:06:00Z,28.6099,-87.9766,10.0,25.2,11111222
Shell,ioos:station:wmo:42851:1,2022-04-15T15:16:00Z,28.6100,-87.9766,10.0,25.2,11111222
Shell,ioos:station:wmo:42851:1,2022-04-15T15:26:00Z,28.6099,-87.9765,10.0,25.3,11111222
Shell,ioos:station:wmo:42851:1,2022-04-15T15:36:00Z,28.6099,-87.9767,10.0,25.3,11111222
Shell,ioos:station:wmo:42851:1,2022-04-15T15:46:00Z,28.6099,-87.9767,10.0,25.3,11111222
Shell,ioos:station:wmo:42851:1,2022-04-15T15:56:00Z,28.6099,-87.9767,10.0,25.3,11111222
Shell,ioos:station:wmo:42851:1,2022-04-15T16:06:00Z,28.6099,-87.9767,10.0,25.3,11111222
Shell,ioos:station:wmo:42851:1,2022-04-15T16:16:00Z,28.6094,-87.9769,10.0,25.3,11111222
Shell,ioos:station:wmo:42851:1,2022-04-15T16:26:00Z,28.6091,-87.9762,10.0,25.3,11111222
Shell,ioos:station:wmo:42851:1,2022-04-15T16:36:00Z,28.6090,-87.9761,10.0,25.3,11111222
Shell,ioos:station:wmo:42851:1,2022-04-15T16:46:00Z,28.6090,-87.9761,10.0,25.3,11111222
Shell,ioos:station:wmo:42851:1,2022-04-15T16:56:00Z,28.6090,-87.9761,10.0,25.3,11111222
Shell,ioos:station:wmo:42851:1,2022-04-15T17:06:00Z,28.6095,-87.9761,10.0,25.3,11111222
Shell,ioos:station:wmo:42851:1,2022-04-15T17:16:00Z,28.6108,-87.9761,10.0,25.4,11111222
Shell,ioos:station:wmo:42851:1,2022-04-15T17:26:00Z,28.6122,-87.9761,10.0,25.4,11111222
Shell,ioos:station:wmo:42851:1,2022-04-15T17:36:00Z,28.6136,-87.9761,10.0,25.4,11111222
Shell,ioos:station:wmo:42851:1,2022-04-15T17:46:00Z,28.6135,-87.9761,10.0,25.4,11111222
Shell,ioos:station:wmo:42851:1,2022-04-15T17:56:00Z,28.6136,-87.9761,10.0,25.4,11111222
Shell,ioos:station:wmo:42851:1,2022-04-15T18:06:00Z,28.6135,-87.9761,10.0,25.4,11111222
Shell,ioos:station:wmo:42851:1,2022-04-15T18:16:00Z,28.6140,-87.9759,10.0,25.4,11111222
Shell,ioos:station:wmo:42851:1,2022-04-15T18:26:00Z,28.6144,-87.9766,10.0,25.4,11111222
Shell,ioos:station:wmo:42851:1,2022-04-15T18:36:00Z,28.6144,-87.9767,10.0,25.5,11111222
Shell,ioos:station:wmo:42851:1,2022-04-15T18:46:00Z,28.6144,-87.9767,10.0,25.6,11111222
Shell,ioos:station:wmo:42851:1,2022-04-15T18:56:00Z,28.6144,-87.9767,10.0,25.7,11111222
Shell,ioos:station:wmo:42851:1,2022-04-15T19:06:00Z,28.6144,-87.9767,10.0,25.7,11111222
Shell,ioos:station:wmo:42851:1,2022-04-15T19:16:00Z,28.6135,-87.9776,10.0,25.8,11111222
Shell,ioos:station:wmo:42851:1,2022-04-15T19:26:00Z,28.6125,-87.9787,10.0,25.9,11111222
Shell,ioos:station:wmo:42851:1,2022-04-15T19:36:00Z,28.6115,-87.9798,10.0,25.9,11111222
Shell,ioos:station:wmo:42851:1,2022-04-15T19:46:00Z,28.6105,-87.9809,10.0,25.9,11111222
Shell,ioos:station:wmo:42851:1,2022-04-15T19:56:00Z,28.6100,-87.9815,10.0,25.9,11111222
Shell,ioos:station:wmo:42851:1,2022-04-15T20:06:00Z,28.6100,-87.9815,10.0,25.9,11111222
Shell,ioos:station:wmo:42851:1,2022-04-15T20:16:00Z,28.6100,-87.9815,10.0,25.9,11111222
Shell,ioos:station:wmo:42851:1,2022-04-15T20:26:00Z,28.6100,-87.9816,10.0,26.0,11111222
Shell,ioos:station:wmo:42851:1,2022-04-15T20:36:00Z,28.6094,-87.9820,10.0,26.0,11111222
Shell,ioos:station:wmo:42851:1,2022-04-15T20:46:00Z,28.6090,-87.9815,10.0,26.0,11111222
Shell,ioos:station:wmo:42851:1,2022-04-15T20:56:00Z,28.6090,-87.9815,10.0,25.8,11111222
Shell,ioos:station:wmo:42851:1,2022-04-15T21:06:00Z,28.6090,-87.9815,10.0,25.9,11111222
Shell,ioos:station:wmo:42851:1,2022-04-15T21:16:00Z,28.6090,-87.9815,10.0,25.9,11111222
Shell,ioos:station:wmo:42851:1,2022-04-15T21:26:00Z,28.6085,-87.9810,10.0,26.0,11111222
Shell,ioos:station:wmo:42851:1,2022-04-15T21:36:00Z,28.6075,-87.9799,10.0,26.1,11111222
Shell,ioos:station:wmo:42851:1,2022-04-15T21:46:00Z,28.6065,-87.9788,10.0,26.2,11111222
Shell,ioos:station:wmo:42851:1,2022-04-15T21:56:00Z,28.6055,-87.9777,10.0,26.2,11111222
Shell,ioos:station:wmo:42851:1,2022-04-15T22:06:00Z,28.6046,-87.9765,10.0,26.3,11111222
Shell,ioos:station:wmo:42851:1,2022-04-15T22:16:00Z,28.6045,-87.9764,10.0,26.3,11111222
Shell,ioos:station:wmo:42851:1,2022-04-15T22:26:00Z,28.6045,-87.9764,10.0,26.3,11111222
Shell,ioos:station:wmo:42851:1,2022-04-15T22:36:00Z,28.6045,-87.9764,10.0,26.3,11111222
Shell,ioos:station:wmo:42851:1,2022-04-15T22:46:00Z,28.6045,-87.9764,10.0,26.3,11111222
Shell,ioos:station:wmo:42851:1,2022-04-15T22:56:00Z,28.6045,-87.9764,10.0,26.3,11111222
Shell,ioos:station:wmo:42851:1,2022-04-15T23:06:00Z,28.6045,-87.9764,10.0,26.3,11111222
Shell,ioos:station:wmo:42851:1,2022-04-15T23:16:00Z,28.6045,-87.9764,10.0,26.3,11111222
Shell,ioos:station:wmo:42851:1,2022-04-15T23:26:00Z,28.6045,-87.9764,10.0,26.3,11111222
Shell,ioos:station:wmo:42851:1,2022-04-15T23:36:00Z,28.6045,-87.9764,10.0,26.3,11111222
Shell,ioos:station:wmo:42851:1,2022-04-15T23:46:00Z,28.6045,-87.9764,10.0,26.3,11111222
Shell,ioos:station:wmo:42851:1,2022-04-15T23:56:00Z,28.6045,-87.9765,10.0,26.3,11111222
Shell,ioos:station:wmo:42851:1,2022-04-16T00:06:00Z,28.6045,-87.9765,10.0,26.3,11111222
Shell,ioos:station:wmo:42851:1,2022-04-16T00:16:00Z,28.6045,-87.9765,10.0,26.3,11111222
Shell,ioos:station:wmo:42851:1,2022-04-16T00:26:00Z,28.6045,-87.9765,10.0,26.4,11111222
Shell,ioos:station:wmo:42851:1,2022-04-16T00:36:00Z,28.6045,-87.9765,10.0,26.3,11111222
Shell,ioos:station:wmo:42851:1,2022-04-16T00:46:00Z,28.6045,-87.9765,10.0,26.3,11111222
Shell,ioos:station:wmo:42851:1,2022-04-16T00:56:00Z,28.6045,-87.9765,10.0,26.3,11111222
Shell,ioos:station:wmo:42851:1,2022-04-16T01:06:00Z,28.6045,-87.9765,10.0,26.3,11111222
Shell,ioos:station:wmo:42851:1,2022-04-16T01:16:00Z,28.6045,-87.9765,10.0,26.3,11111222
Shell,ioos:station:wmo:42851:1,2022-04-16T01:26:00Z,28.6045,-87.9765,10.0,26.3,11111222
Shell,ioos:station:wmo:42851:1,2022-04-16T01:36:00Z,28.6045,-87.9765,10.0,26.3,11111222
Shell,ioos:station:wmo:42851:1,2022-04-16T01:46:00Z,28.6045,-87.9765,10.0,26.3,11111222
Shell,ioos:station:wmo:42851:1,2022-04-16T01:56:00Z,28.6045,-87.9765,10.0,26.3,11111222
Shell,ioos:station:wmo:42851:1,2022-04-16T02:06:00Z,28.6045,-87.9765,10.0,26.3,11111222
Shell,ioos:station:wmo:42851:1,2022-04-16T02:16:00Z,28.6045,-87.9766,10.0,26.3,11111222
Shell,ioos:station:wmo:42851:1,2022-04-16T02:26:00Z,28.6045,-87.9766,10.0,26.3,11111222
Shell,ioos:station:wmo:42851:1,2022-04-16T02:36:00Z,28.6045,-87.9766,10.0,26.3,11111222
Shell,ioos:station:wmo:42851:1,2022-04-16T02:46:00Z,28.6045,-87.9766,10.0,26.3,11111222
Shell,ioos:station:wmo:42851:1,2022-04-16T02:56:00Z,28.6045,-87.9766,10.0,26.3,11111222
Shell,ioos:station:wmo:42851:1,2022-04-16T03:06:00Z,28.6045,-87.9766,10.0,26.3,11111222
Shell,ioos:station:wmo:42851:1,2022-04-16T03:16:00Z,28.6045,-87.9766,10.0,26.3,11111222
Shell,ioos:station:wmo:42851:1,2022-04-16T03:26:00Z,28.6045,-87.9766,10.0,26.3,11111222
Shell,ioos:station:wmo:42851:1,2022-04-16T03:36:00Z,28.6045,-87.9766,10.0,26.3,11111222
Shell,ioos:station:wmo:42851:1,2022-04-16T03:46:00Z,28.6045,-87.9766,10.0,26.3,11111222
Shell,ioos:station:wmo:42851:1,2022-04-16T03:56:00Z,28.6045,-87.9766,10.0,26.3,11111222
Shell,ioos:station:wmo:42851:1,2022-04-16T04:06:00Z,28.6045,-87.9766,10.0,26.2,11111222
Shell,ioos:station:wmo:42851:1,2022-04-16T04:16:00Z,28.6045,-87.9766,10.0,26.2,11111222
Shell,ioos:station:wmo:42851:1,2022-04-16T04:26:00Z,28.6045,-87.9766,10.0,26.2,11111222
Shell,ioos:station:wmo:42851:1,2022-04-16T04:36:00Z,28.6045,-87.9766,10.0,26.2,11111222
Shell,ioos:station:wmo:42851:1,2022-04-16T04:46:00Z,28.6045,-87.9766,10.0,26.2,11111222
Shell,ioos:station:wmo:42851:1,2022-04-16T04:56:00Z,28.6045,-87.9766,10.0,26.2,11111222
Shell,ioos:station:wmo:42851:1,2022-04-16T05:06:00Z,28.6045,-87.9766,10.0,26.2,11111222
Shell,ioos:station:wmo:42851:1,2022-04-16T05:16:00Z,28.6045,-87.9766,10.0,26.2,11111222
Shell,ioos:station:wmo:42851:1,2022-04-16T05:26:00Z,28.6045,-87.9766,10.0,26.2,11111222
Shell,ioos:station:wmo:42851:1,2022-04-16T05:36:00Z,28.6045,-87.9766,10.0,26.1,11111222
Shell,ioos:station:wmo:42851:1,2022-04-16T05:46:00Z,28.6045,-87.9766,10.0,26.1,11111222
Shell,ioos:station:wmo:42851:1,2022-04-16T05:56:00Z,28.6045,-87.9766,10.0,26.1,11111222
Shell,ioos:station:wmo:42851:1,2022-04-16T06:06:00Z,28.6045,-87.9766,10.0,26.1,11111222
Shell,ioos:station:wmo:42851:1,2022-04-16T06:16:00Z,28.6045,-87.9766,10.0,26.1,11111222
Shell,ioos:station:wmo:42851:1,2022-04-16T06:26:00Z,28.6045,-87.9766,10.0,26.1,11111222
Shell,ioos:station:wmo:42851:1,2022-04-16T06:36:00Z,28.6045,-87.9766,10.0,26.1,11111222
Shell,ioos:station:wmo:42851:1,2022-04-16T06:46:00Z,28.6045,-87.9767,10.0,26.0,11111222
Shell,ioos:station:wmo:42851:1,2022-04-16T06:56:00Z,28.6045,-87.9767,10.0,26.0,11111222
Shell,ioos:station:wmo:42851:1,2022-04-16T07:06:00Z,28.6045,-87.9766,10.0,26.0,11111222
Shell,ioos:station:wmo:42851:1,2022-04-16T07:16:00Z,28.6045,-87.9766,10.0,26.0,11111222
Shell,ioos:station:wmo:42851:1,2022-04-16T07:26:00Z,28.6045,-87.9766,10.0,26.0,11111222
Shell,ioos:station:wmo:42851:1,2022-04-16T07:36:00Z,28.6045,-87.9767,10.0,25.9,11111222
Shell,ioos:station:wmo:42851:1,2022-04-16T07:46:00Z,28.6045,-87.9767,10.0,25.9,11111222
Shell,ioos:station:wmo:42851:1,2022-04-16T07:56:00Z,28.6045,-87.9767,10.0,25.9,11111222
Shell,ioos:station:wmo:42851:1,2022-04-16T08:06:00Z,28.6045,-87.9766,10.0,25.9,11111222
Shell,ioos:station:wmo:42851:1,2022-04-16T08:16:00Z,28.6045,-87.9767,10.0,25.9,11111222
Shell,ioos:station:wmo:42851:1,2022-04-16T08:26:00Z,28.6051,-87.9769,10.0,25.8,11111222
Shell,ioos:station:wmo:42851:1,2022-04-16T08:36:00Z,28.6054,-87.9765,10.0,25.8,11111222
Shell,ioos:station:wmo:42851:1,2022-04-16T08:46:00Z,28.6054,-87.9764,10.0,25.8,11111222
Shell,ioos:station:wmo:42851:1,2022-04-16T08:56:00Z,28.6054,-87.9764,10.0,25.8,11111222
Shell,ioos:station:wmo:42851:1,2022-04-16T09:06:00Z,28.6054,-87.9764,10.0,25.7,11111222
Shell,ioos:station:wmo:42851:1,2022-04-16T09:16:00Z,28.6055,-87.9764,10.0,25.7,11111222
Shell,ioos:station:wmo:42851:1,2022-04-16T09:26:00Z,28.6061,-87.9757,10.0,25.6,11111222
Shell,ioos:station:wmo:42851:1,2022-04-16T09:36:00Z,28.6071,-87.9745,10.0,25.6,11111222
Shell,ioos:station:wmo:42851:1,2022-04-16T09:46:00Z,28.6084,-87.9730,10.0,25.5,11111222
Shell,ioos:station:wmo:42851:1,2022-04-16T09:56:00Z,28.6097,-87.9716,10.0,25.5,11111222
Shell,ioos:station:wmo:42851:1,2022-04-16T10:06:00Z,28.6100,-87.9713,10.0,25.4,11111222
Shell,ioos:station:wmo:42851:1,2022-04-16T10:16:00Z,28.6100,-87.9713,10.0,25.4,11111222
Shell,ioos:station:wmo:42851:1,2022-04-16T10:26:00Z,28.6100,-87.9713,10.0,25.4,11111222
Shell,ioos:station:wmo:42851:1,2022-04-16T10:36:00Z,28.6100,-87.9713,10.0,25.4,11111222
Shell,ioos:station:wmo:42851:1,2022-04-16T10:46:00Z,28.6099,-87.9714,10.0,25.4,11111222
Shell,ioos:station:wmo:42851:1,2022-04-16T10:56:00Z,28.6093,-87.9718,10.0,25.4,11111222
Shell,ioos:station:wmo:42851:1,2022-04-16T11:06:00Z,28.6090,-87.9713,10.0,25.3,11111222
Shell,ioos:station:wmo:42851:1,2022-04-16T11:16:00Z,28.6090,-87.9713,10.0,25.2,11111222
Shell,ioos:station:wmo:42851:1,2022-04-16T11:26:00Z,28.6090,-87.9713,10.0,25.2,11111222
Shell,ioos:station:wmo:42851:1,2022-04-16T11:36:00Z,28.6090,-87.9713,10.0,25.2,11111222
Shell,ioos:station:wmo:42851:1,2022-04-16T11:46:00Z,28.6090,-87.9726,10.0,25.3,11111222
Shell,ioos:station:wmo:42851:1,2022-04-16T11:56:00Z,28.6090,-87.9739,10.0,25.3,11111222
Shell,ioos:station:wmo:42851:1,2022-04-16T12:06:00Z,28.6090,-87.9739,10.0,25.1,11111222
Shell,ioos:station:wmo:42851:1,2022-04-16T12:16:00Z,28.6090,-87.9739,10.0,25.1,11111222
Shell,ioos:station:wmo:42851:1,2022-04-16T12:26:00Z,28.6090,-87.9739,10.0,25.1,11111222
Shell,ioos:station:wmo:42851:1,2022-04-16T12:36:00Z,28.6090,-87.9739,10.0,25.0,11111222
Shell,ioos:station:wmo:42851:1,2022-04-16T12:46:00Z,28.6090,-87.9739,10.0,25.0,11111222
Shell,ioos:station:wmo:42851:1,2022-04-16T12:56:00Z,28.6090,-87.9739,10.0,24.9,11111222
Shell,ioos:station:wmo:42851:1,2022-04-16T13:06:00Z,28.6094,-87.9744,10.0,24.9,11111222
Shell,ioos:station:wmo:42851:1,2022-04-16T13:16:00Z,28.6099,-87.9739,10.0,24.8,11111222
Shell,ioos:station:wmo:42851:1,2022-04-16T13:26:00Z,28.6094,-87.9734,10.0,24.8,11111222
Shell,ioos:station:wmo:42851:1,2022-04-16T13:36:00Z,28.6090,-87.9739,10.0,24.8,11111222
Shell,ioos:station:wmo:42851:1,2022-04-16T13:46:00Z,28.6091,-87.9747,10.0,24.8,11111222
Shell,ioos:station:wmo:42851:1,2022-04-16T13:56:00Z,28.6091,-87.9764,10.0,24.8,11111222
Shell,ioos:station:wmo:42851:1,2022-04-16T14:06:00Z,28.6082,-87.9781,10.0,24.8,11111222
Shell,ioos:station:wmo:42851:1,2022-04-16T14:16:00Z,28.6075,-87.9795,10.0,24.8,11111222
Shell,ioos:station:wmo:42851:1,2022-04-16T14:26:00Z,28.6080,-87.9791,10.0,24.8,11111222
Shell,ioos:station:wmo:42851:1,2022-04-16T14:36:00Z,28.6082,-87.9791,10.0,24.6,11111222
Shell,ioos:station:wmo:42851:1,2022-04-16T14:46:00Z,28.6082,-87.9791,10.0,24.7,11111222
Shell,ioos:station:wmo:42851:1,2022-04-16T14:56:00Z,28.6082,-87.9791,10.0,24.7,11111222
Shell,ioos:station:wmo:42851:1,2022-04-16T15:06:00Z,28.6082,-87.9791,10.0,24.7,11111222
Shell,ioos:station:wmo:42851:1,2022-04-16T15:16:00Z,28.6082,-87.9791,10.0,24.7,11111222
Shell,ioos:station:wmo:42851:1,2022-04-16T15:26:00Z,28.6082,-87.9791,10.0,24.7,11111222
Shell,ioos:station:wmo:42851:1,2022-04-16T15:36:00Z,28.6082,-87.9791,10.0,24.7,11111222
Shell,ioos:station:wmo:42851:1,2022-04-16T15:46:00Z,28.6082,-87.9791,10.0,24.7,11111222
Shell,ioos:station:wmo:42851:1,2022-04-16T15:56:00Z,28.6082,-87.9791,10.0,24.8,11111222
Shell,ioos:station:wmo:42851:1,2022-04-16T16:06:00Z,28.6082,-87.9791,10.0,24.9,11111222
Shell,ioos:station:wmo:42851:1,2022-04-16T16:16:00Z,28.6082,-87.9791,10.0,24.9,11111222
Shell,ioos:station:wmo:42851:1,2022-04-16T16:26:00Z,28.6082,-87.9791,10.0,24.9,11111222
Shell,ioos:station:wmo:42851:1,2022-04-16T16:36:00Z,28.6082,-87.9791,10.0,24.8,11111222
Shell,ioos:station:wmo:42851:1,2022-04-16T16:46:00Z,28.6082,-87.9791,10.0,24.8,11111222
Shell,ioos:station:wmo:42851:1,2022-04-16T16:56:00Z,28.6082,-87.9791,10.0,24.8,11111222
Shell,ioos:station:wmo:42851:1,2022-04-16T17:06:00Z,28.6083,-87.9792,10.0,24.8,11111222
Shell,ioos:station:wmo:42851:1,2022-04-16T17:16:00Z,28.6083,-87.9792,10.0,24.8,11111222
Shell,ioos:station:wmo:42851:1,2022-04-16T17:26:00Z,28.6084,-87.9795,10.0,24.8,11111222
Shell,ioos:station:wmo:42851:1,2022-04-16T17:36:00Z,28.6084,-87.9794,10.0,24.6,11111222
Shell,ioos:station:wmo:42851:1,2022-04-16T17:46:00Z,28.6084,-87.9794,10.0,24.7,11111222
Shell,ioos:station:wmo:42851:1,2022-04-16T17:56:00Z,28.6095,-87.9781,10.0,24.7,11111222
Shell,ioos:station:wmo:42851:1,2022-04-16T18:06:00Z,28.6102,-87.9772,10.0,24.7,11111222
Shell,ioos:station:wmo:42851:1,2022-04-16T18:16:00Z,28.6102,-87.9772,10.0,24.8,11111222
Shell,ioos:station:wmo:42851:1,2022-04-16T18:26:00Z,28.6102,-87.9772,10.0,24.8,11111222
Shell,ioos:station:wmo:42851:1,2022-04-16T18:36:00Z,28.6102,-87.9772,10.0,24.8,11111222
Shell,ioos:station:wmo:42851:1,2022-04-16T18:46:00Z,28.6102,-87.9772,10.0,24.9,11111222
Shell,ioos:station:wmo:42851:1,2022-04-16T18:56:00Z,28.6102,-87.9772,10.0,24.9,11111222
Shell,ioos:station:wmo:42851:1,2022-04-16T19:06:00Z,28.6102,-87.9772,10.0,24.9,11111222
Shell,ioos:station:wmo:42851:1,2022-04-16T19:16:00Z,28.6102,-87.9772,10.0,24.9,11111222
Shell,ioos:station:wmo:42851:1,2022-04-16T19:26:00Z,28.6102,-87.9772,10.0,24.9,11111222